Bandera, Texas, United States (78003)
Lat: 29.73N, Lon: 99.07W
Wx Zone: TXZ187
Local Info
Past Weather Observations for Yesterday

NOTE: This archive is for the closest National Weather Service station to Bandera. Information may differ from the station used for current weather conditions.

Click here for Long-term Archive

Time Weather Temperature Dewpoint Humidity Pressure Winds Precip Visibility
23:51
Mostly Cloudy
81°F / 27°C 72°F / 22°C 74% 30.01 in
(1016 mb)
SE 15 mph
(SE 24 kph)
- 10SM
22:51
Clear
82°F / 28°C 72°F / 22°C 70% 30.01 in
(1016 mb)
SE 11.5 mph
(SE 19 kph)
- 10SM
21:51
Clear
84°F / 29°C 72°F / 22°C 66% 29.98 in
(1015 mb)
SE 15 mph
(SE 24 kph)
- 10SM
20:51
Partly Cloudy
88°F / 31°C 72°F / 22°C 59% 29.95 in
(1014 mb)
SE 20.7 mph
(SE 33 kph)
- 10SM
19:51
Overcast
90°F / 32°C 72°F / 22°C 55% 29.95 in
(1014 mb)
SE 20.7 mph
(SE 33 kph)
- 10SM
18:51
Mostly Cloudy
91°F / 33°C 68°F / 20°C 46% 29.89 in
(1012 mb)
SE 18.4 mph
(SE 30 kph)
- 10SM
17:51
Partly Cloudy
95°F / 35°C 63°F / 17°C 34% 29.89 in
(1012 mb)
SSE 15 mph
(SSE 24 kph)
- 10SM
16:51
Clear
97°F / 36°C 61°F / 16°C 30% 29.89 in
(1012 mb)
SSE 16.1 mph
(SSE 26 kph)
- 10SM
15:51
Partly Cloudy
97°F / 36°C 63°F / 17°C 32% 29.89 in
(1012 mb)
S 17.3 mph
(S 28 kph)
- 10SM
14:51
Partly Cloudy
95°F / 35°C 63°F / 17°C 34% 29.92 in
(1013 mb)
SSE 19.6 mph
(SSE 32 kph)
- 10SM
13:51
Partly Cloudy
95°F / 35°C 66°F / 19°C 39% 29.95 in
(1014 mb)
SE 12.7 mph
(SE 20 kph)
- 10SM
12:51
Partly Cloudy
91°F / 33°C 66°F / 19°C 44% 29.98 in
(1015 mb)
SE 12.7 mph
(SE 20 kph)
- 10SM
11:51
Partly Cloudy
91°F / 33°C 68°F / 20°C 46% 30.01 in
(1016 mb)
SSE 11.5 mph
(SSE 19 kph)
- 10SM
10:51
Clear
90°F / 32°C 70°F / 21°C 52% 30.01 in
(1016 mb)
S 11.5 mph
(S 19 kph)
- 10SM
09:51
Partly Cloudy
84°F / 29°C 70°F / 21°C 62% 30.01 in
(1016 mb)
SSE 15 mph
(SSE 24 kph)
- 10SM
08:51
Partly Cloudy
82°F / 28°C 72°F / 22°C 70% 30.01 in
(1016 mb)
SSE 13.8 mph
(SSE 22 kph)
- 10SM
08:19
Partly Cloudy
79°F / 26°C 73°F / 23°C 84% 30.01 in
(1016 mb)
SSE 11.5 mph
(SSE 19 kph)
- 10SM
08:04
Mostly Cloudy
79°F / 26°C 73°F / 23°C 84% 30.01 in
(1016 mb)
SSE 12.7 mph
(SSE 20 kph)
- 10SM
07:51
Mostly Cloudy
79°F / 26°C 73°F / 23°C 84% 30.01 in
(1016 mb)
SE 12.7 mph
(SE 20 kph)
- 10SM
07:48
Mostly Cloudy
79°F / 26°C 73°F / 23°C 84% 30.01 in
(1016 mb)
SE 11.5 mph
(SE 19 kph)
- 10SM
07:19
Mostly Cloudy
77°F / 25°C 73°F / 23°C 89% 29.98 in
(1015 mb)
SE 10.4 mph
(SE 17 kph)
- 9SM
06:51
Clear
75°F / 24°C 73°F / 23°C 94% 29.98 in
(1015 mb)
SE 11.5 mph
(SE 19 kph)
- 9SM
06:19
Partly Cloudy
75°F / 24°C 73°F / 23°C 94% 29.98 in
(1015 mb)
SE 9.2 mph
(SE 15 kph)
- 9SM
05:51
Overcast
75°F / 24°C 73°F / 23°C 94% 29.98 in
(1015 mb)
SE 9.2 mph
(SE 15 kph)
- 10SM
04:51
Overcast
75°F / 24°C 73°F / 23°C 94% 29.95 in
(1014 mb)
SE 6.9 mph
(SE 11 kph)
- 10SM
03:51
Mostly Cloudy
75°F / 24°C 73°F / 23°C 94% 29.95 in
(1014 mb)
SE 8.1 mph
(SE 13 kph)
- 10SM
02:51
Clear
75°F / 24°C 73°F / 23°C 94% 29.95 in
(1014 mb)
SE 9.2 mph
(SE 15 kph)
- 10SM
01:51
Partly Cloudy
77°F / 25°C 72°F / 22°C 83% 29.95 in
(1014 mb)
SE 12.7 mph
(SE 20 kph)
- 10SM
00:51
Clear
79°F / 26°C 72°F / 22°C 79% 29.95 in
(1014 mb)
SE 12.7 mph
(SE 20 kph)
- 10SM
Time Weather Temperature Dewpoint Humidity Pressure Winds Precip Visibility


Weather for websites

WeatherForYou.com, LLC is not responsible for any damages or problems caused by this service. Current weather conditions are obtained from the closest station including government and personal stations which may have varying degrees of accuracy. Weather forecasts are derived from the NOAA NDFD. Like all things, this site belongs to Jesus Christ... He just trusts me to maintain it. If you have any questions or comments email webmaster@weatherforyou.com

Copyright © 2014, WeatherForYou.com LLC. All rights reserved.